Probability
0 0 0 0 0 0 0 0 0 0 0 0 0 0 0 0 0 0 0 0 0 0 0 0 0 0 0 0 0 0 0 0 0 0 0 0 0 0
0 0 0 0 0 0 0 0 0 0 0 0 0 0 0 0 0 0 0 0 0 0 0 0 0 0 0 0 0 0 0 0 0 0 0 0 0 0
0 0 0 0 0 0 0 0 0 0 0 0 0 0 0 0 0 0 0 0 0 0 0 0 0 0 0 0 0 0 0 0 0 0 0 0 0 0
0 0 0 0 0 0 0 0 0 0 0 0 0 0 0 0 0 0 0 0 0 0 0 0 0 0 0 0 0 0 0 0 0 0 0 0 0 0
0 0 0 0 0 0 0 0 0 0 0 0 0 0 0 0 0 0 0 0 0 0 0 0 0 0 0 0 0 0 0 0 0 0 0 0 0 0
0 0 0 0 0 0 0 0 0 0 0 0 0 0 0 0 0 0 0 0 0 0 0 0 0 0 0 0 0 0 0 0 0 0 0 0 0 0
0 0 0 0 0 0 0 0 0 0 0 0 0 0 0 0 0 0 0 0 0 0 0 0 0 0 0 0 0 0 0 0 0 0 0 0 0 0
0 0 0 0 0 0 0 0 0 0 0 0 0 0 0 0 0 0 0 0 0 0 0 0 0 0 0 0 0 0 0 0 0 0 0 0 0 0
0 0 0 0 0 0 0 0 0 0 0 0 0 0 0 0 0 0 0 0 0 0 0 0 0 0 0 0 0 0 0 0 0 0 0 0 0 0
0 0 0 0 0 0 0 0 0 0 0 0 0 0 0 0 0 0 0 0 0 0 0 0 0 0 0 0 0 0 0 0 0 0 0 0 0 0
0 0 0 0 0 0 0 0 0 0 0 0 0 0 0 0 0 0 0 0 0 0 0 0 0 0 0 0 0 0 0 0 0 0 0 0 0 0
0 0 0 0 0 0 0 0 0 0 0 0 0 0 0 0 0 0 0 0 0 0 0 0 0 0 0 0 0 0 0 0 0 0 0 0 0 0
0 0 0 0 0 0 0 0 0 0 0 0 0 0 0 0 0 0 0 0 0 0 0 0 0 0 0 0 0 0 0 0 0 0 0 0 0 0
0 0 0 0 0 0 0 0 0 0 0 0 0 0 0 0 0 0 0 0 0 0 0 0 0 0 0 0 0 0 0 0 0 0 0 0 0 0
0 0 0 0 0 0 0 0 0 0 0 0 0 0 0 0 0 0 0 0 0 0 0 0 0 0 0 0 0 0 0 0 0 0 0 0 0 0
0 0 0 0 0 0 0 0 0 0 0 0 0 0 0 0 0 0 0 0 0 0 0 0 0 0 0 0 0 0 0 0 0 0 0 0 0 0
0 0 0 0 0 0 0 0 0 0 0 0 0 0 0 0 0 0 0 0 0 0 0 0 0 0 0 0 0 0 0 0 0 0 0 0 0 0
0 0 0 0 0 0 0 0 0 0 0 0 0 0 0 0 0 0 0 0 0 0 0 0 0 0 0 0 0 0 0 0 0 0 0 0 0 0
0 0 0 0 0 0 0 0 0 0 0 0 0 0 0 0 0 0 0 0 0 0 0 0 0 0 0 0 0 0 0 0 0 0 0 0 0 0
0 0 0 0 0 0 0 0 0 0 0 0 0 0 0 0 0 0 0 0 0 0 0 0 0 0 0 0 0 0 0 0 0 0 0 0 0 0
0 0 0 0 0 0 0 0 0 0 0 0 0 0 0 0 0 0 0 0 0 0 0 0 0 0 0 0 0 0 0 0 0 0 0 0 0 0
0 0 0 0 0 0 0 0 0 0 0 0 0 0 0 0 0 0 0 0 0 0 0 0 0 0 0 0 0 0 0 0 0 0 0 0 0 0
0 0 0 0 0 0 0 0 0 0 0 0 0 0 0 0 0 0 0 0 0 0 0 0 0 0 0 0 0 0 0 0 0 0 0 0 0 0
Wind_Speed
9 7 6 5 4 3 4 5 7 5 3 2 1 0 1 2 6 5 6 12 14 14 14 14 14 14 14 14 14 14 14 13 11 11 12 12 12 11
6 6 6 4 4 3 4 4 4 5 4 3 2 0 1 2 6 4 6 14 14 15 15 14 14 15 14 14 14 14 14 14 13 13 12 12 12 11
3 3 3 3 4 4 4 4 4 4 4 2 1 1 2 3 4 3 4 5 7 14 15 15 14 14 13 13 13 14 14 14 13 13 12 12 11 10
3 2 2 2 4 4 4 4 4 3 4 3 1 1 2 2 3 4 3 4 5 13 16 15 14 14 13 12 12 12 13 13 12 12 12 11 9 8
8 6 5 3 4 4 4 4 3 3 3 3 2 2 2 2 3 3 3 2 2 7 13 14 14 13 12 11 11 11 12 12 11 10 10 9 8 6
12 11 10 7 5 5 4 4 3 3 3 3 3 2 2 1 3 3 3 3 3 2 5 7 9 9 9 10 11 10 10 11 11 11 11 10 8 7
14 13 14 17 16 8 5 4 4 3 2 2 3 3 2 1 2 2 4 4 4 3 4 4 5 6 5 9 11 13 13 13 13 12 12 11 9 8
12 12 12 15 17 18 17 14 10 6 3 2 2 3 3 2 1 2 5 5 3 1 4 4 4 6 5 5 14 17 16 15 14 13 11 10 8 7
10 10 9 11 13 11 15 18 17 19 14 4 4 4 3 2 1 2 2 3 4 1 3 4 4 6 5 8 16 17 16 15 13 12 10 9 7 6
8 8 8 9 9 10 9 9 9 9 10 9 7 7 7 6 4 3 4 7 7 5 3 4 3 4 5 6 13 15 14 13 11 10 8 7 6 6
8 9 8 6 14 14 9 8 9 10 16 21 21 20 21 18 11 4 3 4 4 4 5 3 3 3 3 4 7 13 13 12 10 9 8 7 7 6
6 9 12 12 17 16 8 7 8 8 8 10 14 16 14 17 19 11 6 4 4 4 5 3 3 3 4 2 3 4 6 9 9 9 9 8 8 4
5 6 7 17 20 19 14 8 10 8 8 9 9 9 9 10 10 10 9 6 5 5 3 3 3 3 3 3 2 2 3 2 3 5 8 10 9 6
3 4 7 18 20 19 13 14 15 11 7 7 8 8 8 8 8 8 9 10 10 8 6 4 3 2 2 3 2 2 2 2 2 3 3 8 8 11
2 6 12 17 16 13 16 17 12 8 7 7 8 7 7 6 6 6 7 7 9 10 9 9 6 3 2 2 2 1 1 1 2 2 3 3 3 4
6 10 15 16 13 13 12 10 8 8 7 7 6 5 5 5 6 5 4 4 5 6 8 8 7 4 2 1 1 1 1 1 2 3 3 3 3 3
6 6 5 6 6 6 6 7 7 7 7 6 6 6 6 6 6 5 5 5 4 3 4 5 5 3 1 1 0 1 0 1 1 3 4 4 3 4
10 7 6 6 6 5 5 5 5 6 5 6 5 5 5 4 4 4 5 4 4 4 4 4 5 4 2 1 1 1 1 1 2 4 4 4 5 4
9 6 6 5 4 4 3 3 3 3 3 3 3 3 3 3 3 3 3 3 3 3 3 4 4 3 3 2 4 4 3 3 4 4 3 4 6 8
5 4 4 4 3 3 3 2 2 2 2 2 2 2 2 2 2 2 2 2 2 2 2 2 3 3 2 3 3 3 5 4 4 5 5 5 6 10
3 3 3 3 3 3 3 2 2 2 1 1 1 1 0 0 1 1 1 3 2 1 1 2 2 6 3 2 3 4 3 5 7 6 6 7 7 5
2 2 2 2 2 2 2 2 2 2 1 1 1 1 1 1 2 2 2 1 1 2 2 3 3 2 1 2 4 5 5 5 7 12 12 11 7 7
2 2 2 2 2 2 2 2 2 2 2 2 2 2 2 2 3 3 3 3 3 3 2 2 1 1 2 3 4 5 7 8 7 6 6 11 16 20
Wind_Direction
249 234 229 220 200 183 158 150 146 156 199 231 241 231 120 126 159 141 141 146 143 143 141 140 138 136 134 131 130 128 125 120 113 106 99 91 83 74
245 221 211 200 179 162 145 127 127 137 169 208 210 175 138 130 159 138 148 149 149 148 147 144 142 138 136 134 132 130 127 122 116 110 105 99 90 79
259 206 192 173 149 136 127 120 114 119 138 160 124 106 120 142 141 132 140 144 152 153 152 148 143 141 139 137 134 132 130 124 119 115 110 103 94 83
337 68 78 106 101 101 105 106 115 122 132 148 141 115 118 148 143 146 151 156 155 165 159 155 152 151 149 145 141 138 135 130 124 120 115 110 101 90
5 27 39 63 80 81 90 98 106 114 121 136 139 95 86 96 117 121 129 121 150 170 166 163 162 160 158 153 149 145 141 136 131 126 122 118 111 100
13 20 25 33 59 74 76 81 99 114 131 136 131 112 96 71 122 132 122 97 77 88 140 139 142 132 136 136 134 132 132 131 128 125 119 114 108 100
16 17 20 24 31 54 78 71 73 82 113 135 134 128 119 103 134 131 126 110 61 57 88 72 83 77 80 104 109 114 112 111 110 109 107 102 95 88
17 13 16 24 20 29 49 61 65 63 59 83 113 126 108 71 62 123 135 137 122 38 94 67 74 85 76 83 102 101 99 96 93 90 85 79 73 66
22 16 16 21 29 26 34 39 41 45 48 53 60 69 87 52 58 94 98 95 110 61 98 96 77 85 73 89 95 92 89 84 80 75 69 59 45 31
16 15 19 19 41 48 44 43 39 41 52 54 57 53 61 56 46 69 104 100 83 35 26 110 99 82 67 57 83 84 80 73 66 60 53 41 25 16
10 12 22 23 53 61 52 45 43 38 51 61 61 55 51 48 42 48 77 107 96 45 16 86 101 93 75 51 57 71 69 61 54 49 42 27 14 22
13 6 22 55 65 66 56 50 53 46 49 54 54 50 46 42 42 36 27 66 95 83 14 60 86 105 101 70 52 49 46 44 47 47 36 20 5 15
31 13 23 60 61 57 54 59 78 72 59 61 60 54 48 43 37 35 33 42 74 80 26 47 83 81 103 115 93 61 40 26 29 36 27 15 8 5
54 23 45 61 59 57 53 54 65 66 60 60 58 51 45 39 36 39 49 57 64 71 42 43 76 77 104 109 108 50 21 31 37 33 11 2 1 351
70 105 83 68 57 48 52 57 55 52 58 61 58 52 45 37 32 37 48 64 66 61 51 46 57 72 74 100 111 88 352 355 28 24 358 345 328 327
55 77 77 74 70 61 53 47 47 57 61 60 61 55 51 47 40 31 33 39 67 61 50 45 40 50 77 102 148 178 226 306 348 350 330 309 301 301
92 80 71 67 66 66 62 57 52 49 53 50 49 51 48 45 39 29 29 36 54 44 30 22 16 16 348 190 170 147 63 343 342 342 330 318 297 288
61 57 56 53 54 55 59 58 54 52 49 53 51 48 46 43 41 33 40 42 52 42 29 16 8 6 17 77 91 32 49 354 323 328 330 317 305 295
48 43 39 35 34 38 43 49 53 56 57 59 58 45 42 41 43 42 38 38 42 38 25 13 15 20 25 4 357 33 29 340 324 321 319 305 297 301
33 33 27 20 18 17 17 23 34 44 55 60 59 46 34 26 31 42 41 35 29 21 12 7 11 11 3 336 315 303 323 312 316 317 315 308 284 284
6 9 9 7 6 8 6 7 7 3 14 15 8 7 13 8 351 355 354 346 22 27 331 316 308 331 329 296 276 275 279 309 315 307 310 312 308 295
333 332 331 335 341 344 342 344 340 327 326 307 292 287 270 247 259 273 272 268 256 250 260 274 291 303 272 261 277 292 300 307 310 304 292 282 288 295
302 301 299 303 302 293 284 282 279 277 268 257 259 260 252 246 247 251 255 254 257 260 264 278 279 246 255 263 277 284 288 300 310 308 295 291 287 282